Location: Iesi
(43.5167°N, 13.2333°E)
Time: 03:14:21
(UTC+00:00)

Cosmos 2322 Rocket - Pass Details

Date: 08 August 2020
Orbit: 831 x 852 km, 71.0° (Epoch: 27 September)

Event Time Altitude Azimuth Distance (km) Brightness Sun altitude
Rises 21:58:11 0° 333° (NNW) 3,418 6.6 -28.3°
Reaches altitude 10° 22:00:38 10° 332° (NNW) 2,481 5.6 -28.4°
Enters shadow 22:06:02 73° 276° (W) 892 2.2 -28.8°
